NORTHERN QUEENS  -  Air Quality Alert Air Quality Alert        SOUTHERN QUEENS  -  Air Quality Alert Air Quality Alert      

Active alerts

Northern Queens
  Details for Northern Queens Air Quality Alert
Southern Queens
  Details for Southern Queens Air Quality Alert


WXM80 ListenWXM80 Stop

You find our weather info also at:

UK Metoffice

WeatherCloud

Weather Underground

Northeastern Weather Network

AWEKAS

Citizen Weather Observer Program (CWOP)

HAMweather, WeatherForYou, PWS Weather


Weather Underground History page Text

Daily Summary for November 10, 2017 Units:  Metric    English   Both
« Previous Day
Next Day »
Daily Weekly Monthly Yearly Custom
  High: Low: Average:
Temperature: 11.2 °C -2.7 °C 3.8 °C
Dew Point: 10.1 °C -11.2 °C -3.2 °C
Humidity: 93 % 44 % 61 %
Wind Speed: 23.3 km/h 0 km/h 10.8 km/h
Wind Gust: 46.7 km/h - -
Wind:- - WSW
Pressure: 1031.7 hPa 1012.1 hPa -
Precipitation: 0 mm    
Historical Graphs
 
 
Tabular Data for November 10, 2017
Time Temperature Dew Point Pressure Wind Wind Speed Wind Gust Humidity Rainfall Rate (Hourly)
00:02 10.8 °C 9.7 °C 1013.1 hPa Calm   5.6 km/h 93 % 0 mm
00:07 10.8 °C 9.7 °C 1012.8 hPa SW 3.9 km/h 5.6 km/h 93 % 0 mm
00:12 10.9 °C 9.8 °C 1012.8 hPa SW 1 km/h 3.7 km/h 93 % 0 mm
00:17 11 °C 9.9 °C 1012.8 hPa SSW 8.2 km/h 14.8 km/h 93 % 0 mm
00:22 11.1 °C 9.9 °C 1012.8 hPa WSW 9.5 km/h 18.5 km/h 93 % 0 mm
00:27 11.2 °C 10.1 °C 1012.8 hPa WSW 9.8 km/h 18.5 km/h 93 % 0 mm
00:32 11.2 °C 9.9 °C 1012.8 hPa WSW 6.3 km/h 16.7 km/h 92 % 0 mm
00:37 11.2 °C 9.9 °C 1012.8 hPa SSW 5 km/h 8 km/h 92 % 0 mm
00:42 11.2 °C 9.9 °C 1012.8 hPa SSW 3.2 km/h 8 km/h 92 % 0 mm
00:47 11.2 °C 9.9 °C 1012.8 hPa SSW 6.4 km/h 18.5 km/h 92 % 0 mm
00:52 11.2 °C 9.9 °C 1012.4 hPa WSW 3.2 km/h 14.8 km/h 92 % 0 mm
00:57 11.2 °C 9.9 °C 1012.4 hPa SSW 8.2 km/h 18.5 km/h 92 % 0 mm
01:02 11.2 °C 9.9 °C 1012.4 hPa SSW 6.9 km/h 14.8 km/h 92 % 0 mm
01:07 11.2 °C 9.9 °C 1012.8 hPa SSW 3.4 km/h 7.4 km/h 92 % 0 mm
01:12 11.1 °C 9.8 °C 1012.4 hPa SSW 11.4 km/h 18.5 km/h 92 % 0 mm
01:17 11.1 °C 9.8 °C 1012.4 hPa WSW 5.6 km/h 11.1 km/h 92 % 0 mm
01:22 11.1 °C 9.8 °C 1012.8 hPa West 8.4 km/h 9.3 km/h 92 % 0 mm
01:27 11.1 °C 9.8 °C 1012.8 hPa West 10.3 km/h 16.1 km/h 92 % 0 mm
01:32 11.1 °C 9.8 °C 1012.4 hPa SSW 13.7 km/h 27.8 km/h 92 % 0 mm
01:37 11 °C 9.7 °C 1012.4 hPa SSW 11.1 km/h 13 km/h 92 % 0 mm
01:42 10.9 °C 9.7 °C 1012.4 hPa WNW 5.3 km/h 7.4 km/h 92 % 0 mm
01:47 10.9 °C 9.7 °C 1012.4 hPa WNW 12.7 km/h 25.7 km/h 92 % 0 mm
01:53 10.8 °C 9.4 °C 1012.4 hPa WSW 6.9 km/h 11.1 km/h 91 % 0 mm
01:58 10.8 °C 9.4 °C 1012.4 hPa SW 7.4 km/h 12.9 km/h 91 % 0 mm
02:03 10.7 °C 9.3 °C 1012.4 hPa SW 5.8 km/h 16.7 km/h 91 % 0 mm
02:08 10.6 °C 9.2 °C 1012.4 hPa SW 8.2 km/h 13 km/h 91 % 0 mm
02:13 10.6 °C 9 °C 1012.4 hPa SW 5.1 km/h 13 km/h 90 % 0 mm
02:18 10.4 °C 8.9 °C 1012.4 hPa WSW 4.7 km/h 11.3 km/h 90 % 0 mm
02:20 10.3 °C 8.6 °C 1012.4 hPa SSW 6.1 km/h 11.1 km/h 89 % 0 mm
02:25 10.3 °C 8.6 °C 1012.4 hPa WSW 5 km/h 14.8 km/h 89 % 0 mm
02:30 10.2 °C 8.4 °C 1012.4 hPa WSW 3.5 km/h 4.8 km/h 89 % 0 mm
02:35 10.1 °C 8.2 °C 1012.4 hPa SW 5.6 km/h 11.1 km/h 88 % 0 mm
02:40 9.9 °C 8.2 °C 1012.4 hPa SSW 4.7 km/h 16.7 km/h 89 % 0 mm
02:45 9.8 °C 8.1 °C 1012.4 hPa SW 13.4 km/h 18.5 km/h 89 % 0 mm
02:50 9.8 °C 7.9 °C 1012.4 hPa SW 6.3 km/h 11.3 km/h 88 % 0 mm
02:55 9.7 °C 7.8 °C 1012.4 hPa SW 7.2 km/h 18.5 km/h 88 % 0 mm
03:00 9.7 °C 7.8 °C 1012.4 hPa West 7.6 km/h 16.7 km/h 88 % 0 mm
03:05 9.6 °C 7.7 °C 1012.4 hPa SW 8.9 km/h 16.1 km/h 88 % 0 mm
03:10 9.6 °C 7.5 °C 1012.1 hPa SSW 9.5 km/h 11.1 km/h 87 % 0 mm
03:15 9.5 °C 7.4 °C 1012.4 hPa SSW 9.7 km/h 13 km/h 87 % 0 mm
03:20 9.4 °C 7.4 °C 1012.4 hPa SW 8 km/h 13 km/h 87 % 0 mm
03:25 9.4 °C 7.2 °C 1012.1 hPa SSW 7.2 km/h 16.7 km/h 86 % 0 mm
03:30 9.3 °C 7.1 °C 1012.4 hPa WSW 6.1 km/h 13 km/h 86 % 0 mm
03:35 9.3 °C 7.1 °C 1012.4 hPa SW 1.6 km/h 8 km/h 86 % 0 mm
03:40 9.3 °C 7.1 °C 1012.4 hPa WSW 2.3 km/h 14.8 km/h 86 % 0 mm
03:45 9.3 °C 7.1 °C 1012.4 hPa NW 3.4 km/h 5.6 km/h 86 % 0 mm
03:50 9.2 °C 7 °C 1012.4 hPa West 9.2 km/h 14.8 km/h 86 % 0 mm
03:55 9.2 °C 7 °C 1012.8 hPa WNW 1.3 km/h 18.5 km/h 86 % 0 mm
04:00 9.2 °C 7 °C 1012.8 hPa NW 6 km/h 18.5 km/h 86 % 0 mm
04:05 9.2 °C 7 °C 1013.1 hPa WSW 8.4 km/h 14.8 km/h 86 % 0 mm
04:10 9.2 °C 6.9 °C 1013.1 hPa NW 10.3 km/h 24.1 km/h 86 % 0 mm
04:15 9.2 °C 6.8 °C 1013.1 hPa West 10.9 km/h 22.2 km/h 85 % 0 mm
04:20 9.3 °C 6.7 °C 1013.1 hPa SW 9.8 km/h 18.5 km/h 84 % 0 mm
04:25 9.3 °C 6.7 °C 1013.1 hPa West 14.3 km/h 22.2 km/h 84 % 0 mm
04:30 9.3 °C 6.8 °C 1013.1 hPa WNW 10.8 km/h 18.5 km/h 84 % 0 mm
04:35 9.3 °C 6.8 °C 1013.4 hPa NNE 6.3 km/h 18.5 km/h 84 % 0 mm
04:40 9.3 °C 6.8 °C 1013.4 hPa WNW 19.3 km/h 40.7 km/h 84 % 0 mm
04:45 9.3 °C 6 °C 1013.8 hPa WNW 14.6 km/h 27.4 km/h 80 % 0 mm
04:50 9.2 °C 5.3 °C 1014.1 hPa WSW 10.8 km/h 27.8 km/h 77 % 0 mm
04:55 9.1 °C 5.3 °C 1014.1 hPa NW 10.6 km/h 18.5 km/h 77 % 0 mm
05:00 9 °C 4.4 °C 1014.1 hPa WSW 14.5 km/h 33.3 km/h 73 % 0 mm
05:05 8.9 °C 4.3 °C 1014.4 hPa West 10.9 km/h 24.1 km/h 73 % 0 mm
05:10 8.8 °C 4 °C 1014.4 hPa West 8 km/h 18.5 km/h 72 % 0 mm
05:15 8.6 °C 3.8 °C 1014.4 hPa WNW 15.3 km/h 31.5 km/h 72 % 0 mm
05:20 8.4 °C 3.7 °C 1014.4 hPa NNE 16.1 km/h 22.2 km/h 72 % 0 mm
05:25 8.3 °C 3.5 °C 1014.8 hPa NNW 9 km/h 22.2 km/h 72 % 0 mm
05:30 8.1 °C 3.4 °C 1014.8 hPa North 13.4 km/h 22.2 km/h 72 % 0 mm
05:35 8 °C 3.3 °C 1015.1 hPa NNW 12.9 km/h 20.4 km/h 72 % 0 mm
05:40 7.8 °C 2.9 °C 1014.8 hPa WNW 14 km/h 25.9 km/h 71 % 0 mm
05:45 7.7 °C 2.8 °C 1015.1 hPa WNW 9.5 km/h 24.1 km/h 71 % 0 mm
05:50 7.6 °C 2.3 °C 1015.1 hPa North 12.6 km/h 22.2 km/h 69 % 0 mm
05:55 7.6 °C 2.6 °C 1015.1 hPa NNW 11.4 km/h 18.5 km/h 71 % 0 mm
06:00 7.4 °C 2.7 °C 1015.5 hPa NW 13.2 km/h 18.5 km/h 72 % 0 mm
06:05 7.3 °C 2.4 °C 1015.8 hPa WNW 7.1 km/h 18.5 km/h 71 % 0 mm
06:10 7.3 °C 2.8 °C 1015.8 hPa WNW 15.6 km/h 25.9 km/h 73 % 0 mm
06:15 7.2 °C 2.5 °C 1015.8 hPa NW 12.7 km/h 29.6 km/h 72 % 0 mm
06:20 7.1 °C 2 °C 1015.8 hPa WSW 17.5 km/h 31.5 km/h 70 % 0 mm
06:25 7 °C 1.9 °C 1015.8 hPa NW 12.4 km/h 27.8 km/h 70 % 0 mm
06:30 6.9 °C 2.1 °C 1015.8 hPa NNE 9.5 km/h 25.9 km/h 71 % 0 mm
06:35 6.8 °C 1.7 °C 1016.1 hPa NNW 11.6 km/h 16.7 km/h 70 % 0 mm
06:40 6.7 °C 1.6 °C 1016.1 hPa WSW 13.5 km/h 19.3 km/h 70 % 0 mm
06:45 6.7 °C 1.6 °C 1016.5 hPa WNW 16.3 km/h 24.1 km/h 70 % 0 mm
06:50 6.5 °C 1.2 °C 1016.8 hPa North 11.3 km/h 20.9 km/h 69 % 0 mm
06:55 6.4 °C 1.1 °C 1016.8 hPa WNW 12.2 km/h 24.1 km/h 69 % 0 mm
07:00 6.3 °C 0.6 °C 1017.2 hPa NW 19.2 km/h 31.5 km/h 67 % 0 mm
07:05 6.1 °C 0.2 °C 1017.5 hPa West 13.2 km/h 24.1 km/h 66 % 0 mm
07:10 5.9 °C -0.2 °C 1017.5 hPa North 13.7 km/h 25.9 km/h 65 % 0 mm
07:15 5.7 °C -0.2 °C 1017.8 hPa NNE 13.7 km/h 27.8 km/h 66 % 0 mm
07:20 5.5 °C -0.6 °C 1017.8 hPa NW 13 km/h 24.1 km/h 65 % 0 mm
07:25 5.3 °C -0.8 °C 1017.8 hPa NNW 11.9 km/h 16.7 km/h 65 % 0 mm
07:30 5.2 °C -1.7 °C 1018.2 hPa WNW 23.3 km/h 38.9 km/h 61 % 0 mm
07:35 5 °C -2.3 °C 1018.2 hPa SSW 17.1 km/h 27.8 km/h 59 % 0 mm
07:40 4.8 °C -2.3 °C 1018.5 hPa NNE 14.5 km/h 33.3 km/h 60 % 0 mm
07:45 4.7 °C -1.7 °C 1018.2 hPa WSW 12.1 km/h 25.9 km/h 63 % 0 mm
07:50 4.7 °C -2.7 °C 1018.8 hPa WNW 19.3 km/h 33.3 km/h 59 % 0 mm
07:56 4.5 °C -3.6 °C 1018.8 hPa NNW 9.5 km/h 29.6 km/h 56 % 0 mm
08:01 4.4 °C -4.4 °C 1019.2 hPa West 17.9 km/h 38.9 km/h 53 % 0 mm
08:06 4.2 °C -4.5 °C 1019.2 hPa WNW 16.1 km/h 38.6 km/h 53 % 0 mm
08:11 4.1 °C -4.1 °C 1019.5 hPa NW 8.5 km/h 20.4 km/h 55 % 0 mm
08:16 4.1 °C -4.4 °C 1019.2 hPa North 12.6 km/h 29.6 km/h 54 % 0 mm
08:21 4 °C -4 °C 1019.5 hPa West 12.9 km/h 20.9 km/h 56 % 0 mm
08:26 4 °C -4 °C 1019.9 hPa WNW 9.7 km/h 29 km/h 56 % 0 mm
08:31 4 °C -4 °C 1019.9 hPa NW 9.7 km/h 25.7 km/h 56 % 0 mm
08:36 4.1 °C -3.7 °C 1019.9 hPa WNW 11.3 km/h 32.2 km/h 57 % 0 mm
08:41 4.3 °C -3.7 °C 1019.9 hPa NW 11.3 km/h 32.2 km/h 56 % 0 mm
08:46 4.5 °C -3.8 °C 1019.9 hPa NW 14.5 km/h 32.2 km/h 55 % 0 mm
08:51 4.6 °C -4.2 °C 1020.2 hPa NW 12.9 km/h 25.7 km/h 53 % 0 mm
08:56 4.7 °C -3.9 °C 1020.2 hPa NW 11.3 km/h 25.7 km/h 54 % 0 mm
09:01 4.8 °C -4 °C 1020.2 hPa NW 13.4 km/h 22.2 km/h 53 % 0 mm
09:06 4.8 °C -5 °C 1020.2 hPa NW 15.9 km/h 35.2 km/h 49 % 0 mm
09:11 4.9 °C -4.2 °C 1020.2 hPa NW 14.8 km/h 31.5 km/h 52 % 0 mm
09:16 4.9 °C -4.9 °C 1020.2 hPa NW 15.3 km/h 22.5 km/h 49 % 0 mm
09:21 5.1 °C -4.3 °C 1020.5 hPa NW 10.5 km/h 22.2 km/h 51 % 0 mm
09:26 5.2 °C -4.9 °C 1020.2 hPa NW 10.6 km/h 27.8 km/h 48 % 0 mm
09:31 5.3 °C -4.6 °C 1020.2 hPa NNW 13.8 km/h 27.8 km/h 49 % 0 mm
09:36 5.5 °C -3.8 °C 1020.5 hPa NNW 13.8 km/h 22.2 km/h 51 % 0 mm
09:39 5.7 °C -3.7 °C 1020.5 hPa NNE 8.7 km/h 19.3 km/h 51 % 0 mm
09:44 5.9 °C -2.7 °C 1020.5 hPa WNW 10.5 km/h 18.5 km/h 54 % 0 mm
09:49 5.9 °C -4 °C 1020.5 hPa West 8.9 km/h 22.2 km/h 49 % 0 mm
09:54 5.9 °C -4.2 °C 1020.5 hPa NNW 15.3 km/h 24.1 km/h 48 % 0 mm
09:59 6.1 °C -3.3 °C 1020.9 hPa NW 15.6 km/h 24.1 km/h 51 % 0 mm
10:04 5.9 °C -3.5 °C 1020.5 hPa NW 14 km/h 24.1 km/h 51 % 0 mm
10:10 5.8 °C -3.3 °C 1020.9 hPa NNW 11.6 km/h 31.5 km/h 52 % 0 mm
10:15 5.8 °C -3.6 °C 1020.9 hPa NW 9.8 km/h 27.8 km/h 51 % 0 mm
10:20 5.9 °C -3.7 °C 1021.2 hPa WNW 12.9 km/h 22.2 km/h 50 % 0 mm
10:25 5.8 °C -4.1 °C 1021.2 hPa NE 20.6 km/h 37 km/h 49 % 0 mm
10:30 5.6 °C -4.1 °C 1021.2 hPa NNW 17.2 km/h 31.5 km/h 50 % 0 mm
10:35 5.3 °C -5.1 °C 1021.2 hPa NW 9.2 km/h 16.7 km/h 47 % 0 mm
10:40 5.2 °C -4.9 °C 1021.2 hPa North 10.8 km/h 22.5 km/h 48 % 0 mm
10:45 5.1 °C -5.3 °C 1021.2 hPa NW 16.6 km/h 32.2 km/h 47 % 0 mm
10:50 5 °C -4.6 °C 1021.6 hPa West 9.2 km/h 25.9 km/h 50 % 0 mm
10:55 5 °C -4.3 °C 1021.6 hPa WNW 6.4 km/h 16.7 km/h 51 % 0 mm
11:00 4.9 °C -4.9 °C 1021.6 hPa WNW 12.9 km/h 29.6 km/h 49 % 0 mm
11:05 4.8 °C -5.1 °C 1021.6 hPa WNW 15.8 km/h 40.7 km/h 49 % 0 mm
11:10 4.7 °C -4.6 °C 1021.6 hPa West 11.1 km/h 18.5 km/h 51 % 0 mm
11:15 4.6 °C -5 °C 1021.6 hPa NW 11.4 km/h 20.4 km/h 50 % 0 mm
11:20 4.4 °C -4.9 °C 1021.6 hPa North 8.7 km/h 25.7 km/h 51 % 0 mm
11:26 4.3 °C -5 °C 1021.6 hPa NW 9.7 km/h 25.7 km/h 51 % 0 mm
11:31 4.1 °C -4.9 °C 1021.6 hPa NW 19.3 km/h 46.7 km/h 52 % 0 mm
11:36 4 °C -5 °C 1021.6 hPa NW 11.3 km/h 24.1 km/h 52 % 0 mm
11:41 3.9 °C -5.1 °C 1021.6 hPa North 9.7 km/h 16.7 km/h 52 % 0 mm
11:46 3.8 °C -4.4 °C 1021.6 hPa NNW 4.8 km/h 24.1 km/h 55 % 0 mm
11:51 3.7 °C -4 °C 1021.9 hPa North 8.4 km/h 12.9 km/h 57 % 0 mm
11:56 3.6 °C -4.1 °C 1021.9 hPa NNE 12.7 km/h 24.1 km/h 57 % 0 mm
12:01 3.4 °C -4.5 °C 1021.9 hPa WNW 16.7 km/h 31.5 km/h 56 % 0 mm
12:06 3.4 °C -4.3 °C 1021.9 hPa NNW 11.3 km/h 29.6 km/h 57 % 0 mm
12:11 3.4 °C -5.1 °C 1021.9 hPa WNW 12.1 km/h 32.2 km/h 54 % 0 mm
12:16 3.3 °C -5.7 °C 1022.2 hPa NNW 12.9 km/h 32.2 km/h 52 % 0 mm
12:21 3.2 °C -4.9 °C 1022.2 hPa NNW 15.6 km/h 25.9 km/h 55 % 0 mm
12:26 3.3 °C -4.9 °C 1022.2 hPa North 13.7 km/h 20.9 km/h 55 % 0 mm
12:31 3.2 °C -5.2 °C 1022.2 hPa NW 12.9 km/h 32.2 km/h 54 % 0 mm
12:36 3.2 °C -5.7 °C 1022.6 hPa NW 12.9 km/h 32.2 km/h 52 % 0 mm
12:41 3.1 °C -5.6 °C 1022.6 hPa WNW 9.7 km/h 22.5 km/h 53 % 0 mm
12:46 3.1 °C -6.1 °C 1022.6 hPa WNW 11.3 km/h 24.1 km/h 51 % 0 mm
12:51 3 °C -6.2 °C 1022.9 hPa WNW 11.3 km/h 29 km/h 51 % 0 mm
12:56 2.9 °C -6.6 °C 1022.9 hPa WNW 20.9 km/h 37 km/h 50 % 0 mm
13:01 2.8 °C -6.4 °C 1022.9 hPa NNE 12.4 km/h 18.5 km/h 51 % 0 mm
13:06 2.8 °C -6.9 °C 1022.6 hPa WNW 15.6 km/h 27.8 km/h 49 % 0 mm
13:11 2.7 °C -7.2 °C 1022.6 hPa NW 9.7 km/h 22.5 km/h 48 % 0 mm
13:16 2.8 °C -6.3 °C 1022.9 hPa NW 12.9 km/h 32.2 km/h 51 % 0 mm
13:21 2.9 °C -5.9 °C 1022.9 hPa NW 11.3 km/h 24.1 km/h 52 % 0 mm
13:26 3.1 °C -6.3 °C 1022.6 hPa NW 16.1 km/h 29 km/h 50 % 0 mm
13:31 3.2 °C -6.8 °C 1022.9 hPa NW 12.9 km/h 25.7 km/h 48 % 0 mm
13:36 3.2 °C -6.3 °C 1022.9 hPa NNW 12.9 km/h 24.1 km/h 50 % 0 mm
13:41 3.3 °C -5.9 °C 1022.9 hPa NW 11.3 km/h 22.5 km/h 51 % 0 mm
13:46 3.3 °C -6.7 °C 1022.9 hPa NW 12.9 km/h 25.7 km/h 48 % 0 mm
13:51 3.3 °C -7.2 °C 1022.9 hPa WNW 9.7 km/h 22.2 km/h 46 % 0 mm
13:56 3.4 °C -7.7 °C 1022.9 hPa WNW 8.7 km/h 20.4 km/h 44 % 0 mm
14:01 3.3 °C -6.9 °C 1022.9 hPa North 7.1 km/h 20.4 km/h 47 % 0 mm
14:06 3.3 °C -6.9 °C 1022.9 hPa North 9.7 km/h 24.1 km/h 47 % 0 mm
14:11 3.2 °C -7.3 °C 1022.9 hPa NNW 4.8 km/h 14.5 km/h 46 % 0 mm
14:16 3.2 °C -6.6 °C 1022.9 hPa NNW 11.3 km/h 29 km/h 49 % 0 mm
14:21 3.1 °C -6.9 °C 1022.9 hPa NNW 9.7 km/h 33.8 km/h 48 % 0 mm
14:26 2.9 °C -7 °C 1023.2 hPa NNW 11.3 km/h 27.4 km/h 48 % 0 mm
14:31 2.8 °C -7.1 °C 1023.2 hPa NNW 9.7 km/h 24.1 km/h 48 % 0 mm
14:36 2.7 °C -8.3 °C 1023.2 hPa NNW 11.3 km/h 32.2 km/h 44 % 0 mm
14:41 2.6 °C -8.2 °C 1023.6 hPa NW 9.7 km/h 19.3 km/h 45 % 0 mm
14:46 2.5 °C -8.3 °C 1023.6 hPa NNW 11.3 km/h 22.5 km/h 45 % 0 mm
14:51 2.4 °C -8.1 °C 1023.6 hPa NNW 11.3 km/h 25.7 km/h 46 % 0 mm
14:56 2.3 °C -8.4 °C 1023.9 hPa NW 8 km/h 32.2 km/h 45 % 0 mm
15:01 2.2 °C -6.9 °C 1023.9 hPa NE 14.5 km/h 19.3 km/h 51 % 0 mm
15:06 2.1 °C -7.8 °C 1023.9 hPa North 6.3 km/h 14.8 km/h 48 % 0 mm
15:11 2.1 °C -7.8 °C 1023.9 hPa NNE 10.3 km/h 22.2 km/h 48 % 0 mm
15:16 1.9 °C -7.9 °C 1024.3 hPa NNW 7.1 km/h 18.5 km/h 48 % 0 mm
15:21 1.9 °C -7.7 °C 1024.3 hPa NNW 14 km/h 25.9 km/h 49 % 0 mm
15:26 1.9 °C -7.7 °C 1024.6 hPa NE 14 km/h 33.3 km/h 49 % 0 mm
15:31 1.8 °C -8.1 °C 1024.6 hPa NNE 16.7 km/h 25.9 km/h 48 % 0 mm
15:36 1.7 °C -8.4 °C 1024.9 hPa WNW 17.7 km/h 38.9 km/h 47 % 0 mm
15:41 1.7 °C -8.2 °C 1024.9 hPa NNE 16.9 km/h 29.6 km/h 48 % 0 mm
15:46 1.6 °C -9.1 °C 1024.9 hPa North 10.9 km/h 31.5 km/h 45 % 0 mm
15:51 1.4 °C -8.9 °C 1024.9 hPa North 13.4 km/h 30.6 km/h 46 % 0 mm
15:56 1.3 °C -9.1 °C 1025.3 hPa NNW 12.9 km/h 16.1 km/h 46 % 0 mm
16:01 1.2 °C -9.7 °C 1025.3 hPa NNE 11.6 km/h 24.1 km/h 44 % 0 mm
16:07 1.2 °C -9.5 °C 1026 hPa NW 10.9 km/h 18.5 km/h 45 % 0 mm
16:12 1.1 °C -9.8 °C 1026 hPa NNW 11.7 km/h 24.1 km/h 44 % 0 mm
16:17 1 °C -9.1 °C 1026 hPa NNW 11.7 km/h 24.1 km/h 47 % 0 mm
16:22 1 °C -9.1 °C 1026 hPa North 13.2 km/h 18.5 km/h 47 % 0 mm
16:27 0.9 °C -8.6 °C 1026 hPa NE 11.3 km/h 22.5 km/h 49 % 0 mm
16:32 0.9 °C -9.7 °C 1026 hPa NNE 13.5 km/h 24.1 km/h 45 % 0 mm
16:37 0.8 °C -9.8 °C 1026 hPa North 21.4 km/h 31.5 km/h 45 % 0 mm
16:42 0.8 °C -9 °C 1026.3 hPa North 16.4 km/h 22.2 km/h 48 % 0 mm
16:47 0.7 °C -9.1 °C 1026.3 hPa North 10.6 km/h 19.3 km/h 48 % 0 mm
16:52 0.7 °C -9.1 °C 1026.3 hPa North 7.9 km/h 14.8 km/h 48 % 0 mm
16:57 0.6 °C -9.8 °C 1026.6 hPa WNW 15.9 km/h 25.9 km/h 46 % 0 mm
17:02 0.4 °C -9.1 °C 1027 hPa NNW 9 km/h 18.5 km/h 49 % 0 mm
17:07 0.4 °C -9.1 °C 1027 hPa NNW 13.7 km/h 27.8 km/h 49 % 0 mm
17:12 0.3 °C -8.9 °C 1027.3 hPa West 8 km/h 20.4 km/h 50 % 0 mm
17:17 0.3 °C -8.9 °C 1027.3 hPa NNE 16.7 km/h 33.3 km/h 50 % 0 mm
17:22 0.2 °C -8.5 °C 1027.3 hPa North 12.1 km/h 24.1 km/h 52 % 0 mm
17:27 0.2 °C -9.1 °C 1027.7 hPa NNE 11.1 km/h 20.4 km/h 50 % 0 mm
17:32 0.1 °C -9.3 °C 1028 hPa NNW 11.9 km/h 29.6 km/h 49 % 0 mm
17:38 0 °C -9.4 °C 1028 hPa NW 11.9 km/h 22.2 km/h 49 % 0 mm
17:43 -0.1 °C -9.6 °C 1028 hPa NNW 9 km/h 16.7 km/h 49 % 0 mm
17:48 -0.2 °C -9.9 °C 1028 hPa NW 15.4 km/h 27.8 km/h 48 % 0 mm
17:53 -0.3 °C -9.7 °C 1028.3 hPa NW 6.9 km/h 13 km/h 49 % 0 mm
17:58 -0.3 °C -9.8 °C 1028.3 hPa NW 6.8 km/h 29.6 km/h 49 % 0 mm
18:03 -0.4 °C -9.6 °C 1028.7 hPa NNW 13.5 km/h 20.4 km/h 50 % 0 mm
18:08 -0.5 °C -9.7 °C 1028.7 hPa West 17.1 km/h 31.5 km/h 50 % 0 mm
18:13 -0.6 °C -9.4 °C 1029 hPa West 11.3 km/h 22.2 km/h 51 % 0 mm
18:18 -0.6 °C -9.8 °C 1029 hPa NW 16.4 km/h 27.8 km/h 50 % 0 mm
18:23 -0.7 °C -9.6 °C 1029 hPa NE 12.1 km/h 22.2 km/h 51 % 0 mm
18:28 -0.7 °C -9.4 °C 1029.3 hPa NW 11.3 km/h 27.8 km/h 52 % 0 mm
18:33 -0.8 °C -9.5 °C 1029.3 hPa NW 9.2 km/h 25.9 km/h 52 % 0 mm
18:38 -0.9 °C -9.8 °C 1029.7 hPa WNW 9.7 km/h 24.1 km/h 51 % 0 mm
18:43 -0.9 °C -9.8 °C 1029.3 hPa NNW 11.7 km/h 20.4 km/h 51 % 0 mm
18:48 -1.1 °C -10.2 °C 1029.3 hPa NNW 9.8 km/h 24.1 km/h 50 % 0 mm
18:53 -1.1 °C -10.7 °C 1029.7 hPa NNW 10.5 km/h 19.3 km/h 48 % 0 mm
18:58 -1.2 °C -10.6 °C 1029.7 hPa ENE 10.6 km/h 30.6 km/h 49 % 0 mm
19:03 -1.3 °C -10.4 °C 1030 hPa NNW 11.1 km/h 18.5 km/h 50 % 0 mm
19:08 -1.3 °C -10.7 °C 1030 hPa WNW 8.5 km/h 16.7 km/h 49 % 0 mm
19:13 -1.3 °C -10.7 °C 1030 hPa NNW 11.6 km/h 29.6 km/h 49 % 0 mm
19:18 -1.3 °C -10.4 °C 1029.7 hPa NNW 13.8 km/h 29.6 km/h 50 % 0 mm
19:23 -1.3 °C -10.4 °C 1030 hPa North 19.2 km/h 25.7 km/h 50 % 0 mm
19:28 -1.4 °C -10 °C 1030 hPa WNW 5.3 km/h 13 km/h 52 % 0 mm
19:33 -1.4 °C -9.3 °C 1030.4 hPa NNE 9.8 km/h 16.7 km/h 55 % 0 mm
19:38 -1.4 °C -10 °C 1030.4 hPa North 10.8 km/h 13 km/h 52 % 0 mm
19:43 -1.5 °C -10.6 °C 1030.4 hPa NNW 10 km/h 16.7 km/h 50 % 0 mm
19:49 -1.6 °C -10.9 °C 1031 hPa North 9 km/h 20.4 km/h 49 % 0 mm
19:54 -1.6 °C -10.9 °C 1030.7 hPa WNW 12.7 km/h 22.2 km/h 49 % 0 mm
19:59 -1.7 °C -10.7 °C 1030.7 hPa WNW 10.6 km/h 18.5 km/h 50 % 0 mm
20:04 -1.7 °C -10.8 °C 1030.7 hPa WNW 13.2 km/h 24.1 km/h 50 % 0 mm
20:09 -1.8 °C -10.8 °C 1030.7 hPa WNW 5.8 km/h 22.5 km/h 50 % 0 mm
20:14 -1.8 °C -11.2 °C 1030.7 hPa North 14.6 km/h 24.1 km/h 49 % 0 mm
20:19 -1.9 °C -11.2 °C 1030.7 hPa NNE 7.6 km/h 14.8 km/h 49 % 0 mm
20:24 -1.9 °C -10.4 °C 1030.7 hPa WNW 10.3 km/h 16.7 km/h 52 % 0 mm
20:30 -1.9 °C -10.3 °C 1031 hPa NNW 8.4 km/h 11.1 km/h 53 % 0 mm
20:35 -1.9 °C -10.5 °C 1031 hPa NNW 8.5 km/h 13 km/h 52 % 0 mm
20:40 -2 °C -10.1 °C 1031 hPa NW 9.5 km/h 17.7 km/h 54 % 0 mm
20:45 -2.1 °C -10.6 °C 1031 hPa North 7.4 km/h 14.8 km/h 52 % 0 mm
20:50 -2.1 °C -10.4 °C 1031.4 hPa NNE 9.8 km/h 18.5 km/h 53 % 0 mm
20:55 -2.1 °C -9.9 °C 1031.4 hPa NNE 11.6 km/h 24.1 km/h 55 % 0 mm
21:00 -2.1 °C -10.2 °C 1031.4 hPa NNW 11.1 km/h 18.5 km/h 54 % 0 mm
21:05 -2.2 °C -10.2 °C 1031 hPa NNW 6.4 km/h 16.7 km/h 54 % 0 mm
21:10 -2.2 °C -10 °C 1031.4 hPa North 13.5 km/h 25.9 km/h 55 % 0 mm
21:15 -2.2 °C -10.5 °C 1031.4 hPa NE 9.3 km/h 13 km/h 53 % 0 mm
21:20 -2.2 °C -10.5 °C 1031.4 hPa NNE 12.4 km/h 27.8 km/h 53 % 0 mm
21:25 -2.2 °C -9.4 °C 1031.4 hPa WNW 9.5 km/h 16.7 km/h 58 % 0 mm
21:30 -2.3 °C -10.1 °C 1031.4 hPa NNE 7.2 km/h 14.8 km/h 55 % 0 mm
21:35 -2.3 °C -10.1 °C 1031.4 hPa ENE 6.4 km/h 18.5 km/h 55 % 0 mm
21:40 -2.3 °C -10.4 °C 1031.4 hPa North 12.4 km/h 22.2 km/h 54 % 0 mm
21:45 -2.3 °C -9.9 °C 1031.4 hPa NNW 11.9 km/h 24.1 km/h 56 % 0 mm
21:50 -2.3 °C -9.9 °C 1031.4 hPa WNW 9.7 km/h 19.3 km/h 56 % 0 mm
21:56 -2.4 °C -10.2 °C 1031.7 hPa NNW 9.7 km/h 24.1 km/h 55 % 0 mm
22:01 -2.4 °C -10.4 °C 1031.4 hPa NNW 10 km/h 24.1 km/h 54 % 0 mm
22:06 -2.4 °C -10.2 °C 1031.7 hPa NNW 4.8 km/h 20.4 km/h 55 % 0 mm
22:17 -2.4 °C -9.8 °C 1031.7 hPa NNE 5.1 km/h 11.1 km/h 57 % 0 mm
22:22 -2.5 °C -9.4 °C 1031.7 hPa NNW 3.4 km/h 13 km/h 59 % 0 mm
22:23 -2.4 °C -9.4 °C 1023.9 hPa NNW 2.9 km/h 13 km/h 59 % 0 mm
22:24 -2.5 °C -9.7 °C 1024.3 hPa NW 11.3 km/h 27.8 km/h 58 % 0 mm
22:28 -2.5 °C -9.9 °C 1031.7 hPa NW 10.8 km/h 18.5 km/h 57 % 0 mm
22:33 -2.5 °C -9.4 °C 1031.7 hPa NNW 9.5 km/h 18.5 km/h 59 % 0 mm
22:38 -2.5 °C -9.7 °C 1031.7 hPa NNW 10.3 km/h 20.4 km/h 58 % 0 mm
22:43 -2.5 °C -9.9 °C 1031.7 hPa NW 9.8 km/h 18.5 km/h 57 % 0 mm
22:48 -2.6 °C -9.5 °C 1031.4 hPa NNW 6.4 km/h 16.7 km/h 59 % 0 mm
22:53 -2.6 °C -9.1 °C 1031.7 hPa NE 3.4 km/h 18.5 km/h 61 % 0 mm
22:58 -2.6 °C -9.3 °C 1031.7 hPa NNE 7.1 km/h 13 km/h 60 % 0 mm
23:03 -2.6 °C -9.7 °C 1031.7 hPa West 7.7 km/h 22.5 km/h 58 % 0 mm
23:08 -2.6 °C -9.3 °C 1031.7 hPa North 14.3 km/h 18.5 km/h 60 % 0 mm
23:13 -2.6 °C -9.1 °C 1031.4 hPa WNW 5.3 km/h 11.1 km/h 61 % 0 mm
23:18 -2.6 °C -9.3 °C 1031.4 hPa North 11.3 km/h 20.9 km/h 60 % 0 mm
23:23 -2.6 °C -9.1 °C 1031.7 hPa NE 9.8 km/h 17.7 km/h 61 % 0 mm
23:28 -2.6 °C -9.3 °C 1031.7 hPa North 11.3 km/h 18.5 km/h 60 % 0 mm
23:33 -2.6 °C -9.3 °C 1031.4 hPa North 4 km/h 11.1 km/h 60 % 0 mm
23:38 -2.7 °C -9.2 °C 1031.7 hPa WNW 5.3 km/h 22.2 km/h 61 % 0 mm
23:43 -2.7 °C -9.2 °C 1031.7 hPa NNW 10.3 km/h 20.4 km/h 61 % 0 mm
23:48 -2.7 °C -9.2 °C 1031.7 hPa NW 10.8 km/h 22.2 km/h 61 % 0 mm
23:53 -2.7 °C -9.2 °C 1031.4 hPa NNW 6.4 km/h 14.8 km/h 61 % 0 mm
23:58 -2.7 °C -9.2 °C 1031.7 hPa WNW 7.2 km/h 16.7 km/h 61 % 0 mm
Crab Meadow Weather
Compliments of Weather Underground - 3 mb

Script developed by  Jim McMurry - jmcmurry@mwt.net Adapted for the template by  Wim van der Kuil - Leuven-Template.eu

Weather Terms: Tornado Watch - Conditions are favorable for the development of severe thunderstorms and tornadoes in and close to the watch area. These watches are issued for large areas by the Storm Prediction Center in Norman, Oklahoma, and are usually valid for four to six hours.